Portada
METAR-TAF:

METAR-TAF

Aeroports :

Bundaberg, Austràlia

latitud: 24-54-14S, longitud: 152-19-07E, altitud: 33 m

Observació

L'informe es va fer fa 52 minuts, a les 17:00 UTC
Vent 4 kt del Nord
Temperatura 23°C
Humitat 83%
Pressió 1009 hPa
Visibilitat 10 km o més

METAR: YBUD 031700Z AUTO 36004KT 9999 // NCD 23/20 Q1009

Hora: 03:52 (17:52 UTC)


TAF: manca

Observacions i pronòstics meteorològics de més de 4000 aeroports (METAR i TAF).

Les estacions disponibles són els punts grocs i vermells al mapa.

Posi el ratolí al punt desitjat per veure el nom de l'estació.

Feu clic per veure les observacions i els pronòstics meteorològics.

Per canviar el mapa: feu clic els botons verds amb una creu de color negre per apropar; al botó verd amb un guió per allunyar la imatge; o en les fletxes verdes per a mapes adjacents.


METAR-TAF: